Wind_Speed
14 14 14 14 15 13 12 10 10 9 9 8 7 7 6 5 4 4 3 3 3 2 2 3 4 4 5 6 7 7 7 7 8 8 8 8 8 8 10 11 10 10 11 12 12 11 10 8 7
14 14 14 14 16 13 12 11 10 10 10 8 7 6 6 5 5 4 3 3 2 2 2 3 4 4 5 6 7 7 6 7 8 9 9 8 8 8 10 11 11 10 11 11 12 11 10 9 8
13 13 14 16 15 14 13 12 11 11 10 9 9 8 7 6 5 4 3 2 2 2 2 3 4 4 5 6 6 6 7 7 8 8 8 8 8 9 10 11 11 11 11 11 11 10 10 9 8
13 13 15 16 14 14 13 13 12 12 11 11 10 9 8 8 6 5 3 2 2 2 2 4 4 5 5 5 6 6 7 7 7 7 7 8 8 8 9 10 11 11 11 11 11 10 10 9 8
13 14 16 14 13 13 13 12 12 12 13 12 11 10 9 8 7 6 4 3 2 2 3 4 4 4 4 5 5 5 5 6 6 7 7 8 8 9 9 10 10 11 12 12 11 11 10 9 8
13 15 14 12 12 12 12 12 13 12 12 12 11 11 10 9 8 6 5 3 2 2 3 4 4 4 4 5 5 4 5 5 5 6 7 7 8 8 9 10 10 11 11 11 12 11 11 10 8
13 15 13 12 12 12 12 12 13 12 11 12 11 10 10 10 9 8 6 4 3 2 3 4 4 4 5 5 4 5 4 4 5 6 7 7 7 8 9 9 11 12 12 11 11 11 10 10 8
12 14 13 12 12 11 11 12 13 13 12 12 11 11 11 11 10 9 7 6 4 3 3 3 4 4 4 4 5 5 5 4 5 5 6 7 8 9 9 9 11 11 11 12 12 11 11 10 9
11 13 10 11 12 12 11 12 13 13 12 12 11 11 11 10 10 9 8 6 5 4 3 3 4 3 3 3 4 5 4 4 4 5 6 7 7 8 9 9 10 10 11 11 11 11 11 10 9
10 10 8 10 11 11 11 12 12 13 13 13 12 11 11 11 10 9 8 7 6 4 3 3 3 2 2 2 3 4 4 4 4 5 6 7 7 8 9 9 10 10 10 11 11 12 11 10 9
8 8 7 8 9 10 11 12 12 13 13 13 13 12 12 11 10 9 8 7 6 4 4 3 3 2 1 1 2 3 4 4 4 4 5 7 8 8 9 9 10 10 10 11 11 11 11 10 9
6 6 6 6 7 8 9 10 12 12 12 12 13 13 13 11 10 10 8 7 5 4 4 4 4 3 1 1 2 3 4 4 5 5 5 6 7 8 9 10 10 9 10 10 11 10 10 9 9
4 4 5 6 7 8 8 9 10 11 11 12 12 12 13 12 11 10 9 8 7 5 5 4 3 3 2 2 2 3 4 4 5 5 6 6 7 7 8 9 9 9 10 10 10 10 10 9 9
3 3 3 5 6 7 8 9 9 10 10 11 12 12 12 13 12 10 9 8 7 6 4 4 3 3 3 3 3 4 4 5 5 5 5 5 7 7 7 8 9 8 8 9 9 8 9 9 9
1 2 2 3 4 6 7 8 8 9 9 10 11 11 12 12 12 11 9 8 7 6 5 4 4 3 3 3 4 4 5 5 5 5 5 5 6 6 7 7 8 8 8 8 8 7 7 8 8
0 1 2 2 2 4 5 6 6 7 8 9 10 10 11 11 11 11 10 9 8 6 5 4 4 4 4 4 4 5 5 5 5 4 4 4 5 6 6 7 7 8 8 8 8 7 7 8 8
2 1 2 2 2 3 4 5 5 6 6 7 8 9 9 10 10 10 10 9 8 6 5 4 4 4 3 3 3 4 4 4 4 4 4 3 4 5 6 6 6 7 8 9 8 7 7 7 8
6 4 4 4 4 3 3 4 5 5 6 6 7 8 8 9 9 9 9 8 8 6 5 5 5 5 4 2 2 2 3 4 4 3 3 3 3 4 5 6 6 6 7 8 8 7 7 8 9
8 6 5 5 6 5 4 4 5 5 5 6 6 7 8 8 9 9 8 8 8 7 5 5 4 5 4 3 2 2 2 3 3 3 2 2 3 3 4 5 5 6 7 7 8 7 7 8 9
9 8 7 8 8 6 5 5 6 6 5 6 6 7 8 8 8 8 8 8 7 7 6 5 4 4 3 3 2 2 2 2 3 3 2 2 2 3 3 3 3 4 5 6 7 7 7 7 8
9 10 9 9 9 8 7 6 7 6 6 6 7 7 8 8 7 8 8 7 6 6 6 6 5 4 4 2 1 1 1 1 0 1 2 2 2 2 2 2 3 3 4 5 5 6 7 7 7
10 10 10 10 10 9 8 7 8 7 7 7 8 8 8 9 8 8 8 7 6 6 6 6 5 5 4 2 1 1 1 1 1 1 1 1 2 2 2 3 3 3 3 4 4 5 6 7 7
11 11 12 11 10 10 9 8 8 8 8 9 9 8 9 9 8 7 8 8 7 6 6 6 5 4 4 3 3 3 3 2 2 2 2 3 3 2 3 3 3 3 4 4 5 6 6 6 7
12 11 11 11 10 11 10 9 8 9 9 9 9 9 9 9 9 8 8 8 7 6 6 6 5 5 4 4 4 3 3 3 3 3 3 3 3 3 3 4 4 4 4 5 5 6 6 7 7
13 12 11 11 12 13 12 11 10 10 10 9 9 10 10 10 9 9 9 9 8 7 6 6 6 5 4 5 4 4 4 4 4 4 4 4 4 4 4 5 6 6 6 6 7 7 8 8 9
15 14 14 14 14 14 14 13 12 11 11 10 10 10 11 11 10 9 10 10 9 8 7 7 7 7 6 6 6 6 6 6 5 5 5 5 6 6 6 6 7 8 8 8 9 9 9 10 11
18 17 17 17 17 16 16 15 14 12 12 11 11 11 12 12 11 11 11 11 11 11 10 9 9 8 8 8 8 8 7 8 7 7 7 7 7 8 8 8 9 9 9 10 10 11 11 12 12
20 19 18 17 18 17 17 16 16 14 13 13 12 12 13 13 12 12 12 12 12 12 12 11 11 10 10 10 10 10 10 10 9 9 9 9 9 10 10 11 11 11 12 12 13 13 13 13 14
21 21 21 20 20 18 17 17 17 16 15 14 13 14 14 14 14 14 14 13 13 13 13 13 13 12 12 12 12 12 12 12 12 11 11 12 12 12 13 13 13 13 14 14 15 16 16 16 16
22 22 22 21 21 20 19 20 18 18 16 16 15 15 15 15 15 16 15 15 15 14 14 15 15 14 14 14 15 15 14 14 14 13 14 14 15 15 15 16 16 16 16 16 16 17 17 18 18
Wind_Direction
87 82 80 79 78 75 76 76 79 78 76 73 74 70 63 58 66 84 86 95 118 134 136 156 171 180 183 181 180 179 180 185 181 181 180 182 185 190 189 184 180 178 175 173 171 169 173 173 175
87 83 81 77 75 74 71 72 73 73 72 68 65 60 57 54 62 79 85 90 112 137 142 146 167 183 181 175 175 177 182 184 183 182 181 183 186 188 186 178 179 178 174 171 172 174 175 174 179
88 83 81 79 76 74 71 69 69 68 67 64 61 60 55 54 60 70 75 81 112 142 163 159 159 167 168 171 172 175 181 182 180 182 182 181 181 180 181 179 178 180 176 174 173 176 177 178 182
88 86 80 76 73 70 68 67 67 63 61 61 58 56 53 51 50 55 60 72 111 138 150 154 159 163 166 173 175 180 178 182 183 184 183 179 178 178 181 183 181 181 180 180 177 177 179 183 184
88 84 77 74 72 68 66 64 63 61 58 56 53 53 52 50 49 48 51 53 89 135 150 153 159 160 170 178 184 183 176 178 184 188 191 182 178 177 179 182 183 182 184 183 181 178 179 183 187
90 82 81 76 69 65 61 57 57 57 54 53 55 55 51 47 49 45 40 39 74 129 153 157 160 161 170 185 185 179 171 174 182 187 188 182 178 180 183 185 182 179 181 180 182 181 182 183 185
87 87 82 74 67 62 57 55 54 53 51 50 50 51 49 44 44 42 42 46 68 112 155 157 160 161 168 182 183 168 168 169 176 176 176 180 180 185 188 188 184 183 184 183 185 184 185 186 185
90 86 76 72 65 58 55 53 51 52 51 50 49 48 48 42 42 43 46 54 69 100 123 141 139 151 166 180 175 169 171 168 172 174 177 181 182 187 191 188 189 188 189 189 190 188 184 186 191
89 86 81 76 66 57 52 50 49 50 49 49 49 46 42 38 40 42 45 56 73 85 102 128 128 134 153 186 174 171 178 176 177 183 185 183 185 187 188 189 188 187 188 189 190 188 186 189 196
92 94 87 77 67 60 52 49 50 49 46 47 46 43 41 37 38 41 45 58 75 84 90 116 124 118 141 182 187 180 191 187 189 192 189 187 180 184 188 191 190 187 187 188 189 187 190 196 201
92 89 81 73 64 59 53 50 49 48 44 44 43 39 38 39 38 37 42 57 68 72 78 81 89 97 122 167 181 187 199 197 194 187 182 182 174 174 180 181 184 185 188 191 191 191 194 196 202
93 83 70 63 56 57 54 51 49 48 47 45 42 38 37 37 38 37 42 46 58 69 69 73 69 71 73 5 189 179 194 182 169 161 164 170 166 169 173 176 178 182 188 195 197 194 197 201 206
97 82 66 57 49 51 53 51 48 48 50 49 45 40 36 33 33 37 39 40 49 59 64 64 60 60 49 30 148 159 161 156 147 143 150 159 159 163 166 171 175 182 188 190 193 196 200 207 212
98 69 61 54 48 46 46 44 43 45 47 47 45 41 36 34 33 33 33 34 39 51 56 57 60 58 63 77 112 131 144 141 133 133 140 152 160 163 168 175 178 180 185 188 191 196 203 211 218
89 67 58 37 38 36 36 32 32 36 40 41 40 38 34 33 32 31 30 32 36 45 50 53 47 57 81 93 109 121 128 132 129 128 138 148 164 168 172 178 183 184 184 192 199 202 211 218 225
305 57 2 351 15 20 31 22 19 23 27 33 35 35 33 31 30 30 28 28 31 39 46 51 52 67 83 92 100 114 124 129 133 130 135 144 160 167 176 178 185 186 188 194 200 205 213 219 229
271 258 281 305 310 356 13 9 3 4 8 18 26 30 28 28 26 26 28 28 31 39 47 51 53 56 66 76 97 112 109 116 129 130 127 141 162 178 181 177 184 189 193 199 206 213 218 222 228
235 241 252 271 286 299 319 331 341 348 354 359 10 18 19 20 20 18 21 24 27 31 38 42 44 45 48 52 88 112 109 112 125 135 132 138 152 169 181 185 191 196 198 205 211 218 223 228 235
235 238 248 266 279 288 292 306 323 332 340 344 354 1 3 6 8 8 11 16 19 20 23 29 34 36 31 42 64 96 121 126 140 151 158 151 155 171 185 188 194 202 206 210 216 221 227 234 239
239 242 248 263 278 286 284 297 309 313 316 322 332 341 346 352 357 356 359 4 9 12 14 18 18 15 14 23 48 69 98 142 164 180 185 197 188 177 185 184 191 207 215 219 222 226 231 236 240
242 243 247 256 271 278 281 287 299 304 305 311 321 329 335 337 340 343 346 351 356 1 5 11 11 1 346 340 20 53 80 63 127 157 183 193 192 193 188 196 196 214 223 224 228 228 228 237 247
242 243 246 253 265 274 276 279 288 293 297 299 307 318 326 325 325 328 333 337 340 345 351 359 4 1 343 325 319 319 317 325 318 294 242 241 233 229 228 219 219 232 238 232 226 232 240 246 252
247 248 249 253 261 266 274 270 273 286 295 293 297 305 315 322 322 322 322 325 328 332 338 344 350 350 340 331 313 288 282 287 294 286 262 261 260 248 247 247 248 247 249 245 242 247 250 255 258
250 253 256 260 261 265 268 266 266 277 286 289 289 294 302 313 314 315 314 316 320 321 323 327 334 335 323 322 321 300 285 282 283 281 284 280 275 270 273 275 271 271 270 268 266 261 257 263 273
248 250 257 263 264 265 267 265 262 270 278 282 283 284 293 303 305 308 312 314 312 310 312 313 314 311 306 305 303 290 286 285 289 277 274 288 293 294 290 285 277 278 281 282 279 274 268 271 277
248 245 249 255 261 266 268 266 264 268 276 277 278 278 284 292 297 299 303 306 304 296 299 301 299 295 290 290 291 282 276 273 275 276 278 277 279 283 287 286 280 280 280 281 282 282 276 275 277
248 248 249 255 260 263 263 264 266 268 275 275 275 276 279 285 289 291 295 296 295 290 288 290 289 289 286 283 285 278 270 269 270 271 270 271 272 274 277 283 287 291 292 291 287 285 280 279 280
247 249 250 251 257 262 266 264 262 266 270 272 277 277 276 279 285 289 290 289 288 289 285 283 280 282 280 278 276 274 265 265 267 267 266 270 272 274 276 279 282 284 288 289 288 286 287 285 285
250 250 249 250 252 256 262 265 266 266 267 270 276 276 275 274 280 286 288 286 288 290 281 276 275 273 274 273 272 273 268 265 265 265 266 269 272 275 278 279 280 284 285 284 283 283 283 283 282
251 251 251 251 254 255 257 262 265 265 266 268 270 272 273 272 275 280 281 283 286 288 281 273 273 273 270 267 269 269 268 265 266 267 269 271 272 274 278 280 282 282 282 283 282 283 281 281 281
Height
5899 5899 5899 5900 5900 5900 5899 5899 5897 5896 5895 5893 5892 5891 5890 5889 5889 5890 5887 5885 5885 5884 5883 5882 5882 5882 5882 5882 5883 5884 5883 5884 5884 5884 5885 5885 5885 5886 5887 5887 5888 5890 5891 5892 5894 5896 5898 5899 5900
5901 5901 5902 5902 5902 5902 5901 5900 5898 5897 5895 5894 5892 5891 5890 5889 5888 5887 5886 5885 5885 5884 5883 5882 5882 5882 5882 5882 5883 5883 5883 5883 5883 5884 5884 5884 5884 5884 5885 5887 5888 5889 5890 5892 5894 5897 5898 5899 5900
5903 5903 5904 5904 5904 5903 5902 5901 5899 5897 5896 5894 5893 5892 5890 5889 5888 5887 5886 5885 5884 5884 5883 5882 5882 5882 5882 5882 5883 5883 5883 5883 5883 5883 5883 5883 5883 5884 5885 5886 5888 5889 5890 5892 5895 5897 5898 5900 5901
5906 5906 5906 5907 5906 5905 5903 5902 5900 5898 5897 5895 5894 5892 5891 5889 5888 5887 5886 5885 5884 5883 5882 5882 5882 5882 5882 5882 5882 5883 5883 5883 5883 5883 5883 5882 5883 5884 5885 5886 5887 5889 5891 5893 5894 5896 5898 5900 5901
5908 5908 5909 5910 5908 5907 5905 5903 5901 5900 5898 5896 5895 5893 5891 5890 5888 5887 5886 5885 5884 5883 5882 5882 5882 5882 5882 5882 5882 5882 5882 5882 5882 5882 5882 5882 5882 5883 5884 5886 5887 5889 5891 5892 5894 5896 5898 5900 5901
5910 5910 5913 5911 5910 5908 5906 5904 5902 5901 5899 5897 5896 5894 5892 5890 5889 5887 5886 5885 5884 5883 5883 5882 5882 5882 5882 5882 5882 5882 5882 5882 5882 5882 5882 5882 5882 5883 5884 5886 5887 5889 5890 5892 5894 5896 5898 5900 5901
5912 5912 5913 5912 5911 5910 5908 5906 5904 5902 5900 5898 5897 5895 5893 5891 5889 5888 5886 5885 5884 5883 5882 5882 5882 5882 5882 5882 5882 5882 5882 5882 5882 5882 5882 5882 5883 5883 5884 5885 5887 5889 5890 5892 5894 5896 5898 5899 5900
5914 5915 5915 5914 5913 5911 5909 5907 5905 5903 5902 5900 5898 5896 5894 5892 5890 5888 5887 5885 5884 5883 5883 5883 5882 5882 5882 5882 5882 5882 5882 5882 5882 5882 5882 5882 5882 5883 5883 5885 5886 5888 5890 5892 5894 5896 5898 5899 5901
5916 5918 5918 5916 5914 5913 5910 5908 5907 5905 5903 5901 5899 5897 5895 5893 5891 5889 5888 5886 5885 5884 5883 5883 5883 5883 5882 5882 5882 5882 5882 5881 5881 5881 5882 5882 5882 5883 5883 5885 5886 5888 5890 5892 5894 5896 5898 5899 5900
5918 5919 5918 5917 5915 5914 5912 5910 5908 5906 5904 5902 5900 5898 5896 5894 5892 5890 5888 5887 5886 5885 5884 5884 5883 5883 5883 5882 5882 5882 5881 5881 5881 5881 5881 5882 5882 5882 5883 5884 5886 5888 5890 5892 5894 5895 5897 5898 5900
5919 5919 5919 5918 5917 5915 5913 5911 5909 5908 5906 5904 5902 5900 5897 5895 5893 5891 5889 5888 5887 5886 5885 5885 5884 5883 5883 5882 5882 5881 5881 5881 5880 5881 5881 5880 5881 5882 5882 5884 5886 5888 5890 5892 5893 5895 5897 5898 5899
5921 5921 5920 5919 5918 5916 5915 5913 5911 5909 5908 5906 5903 5901 5899 5896 5894 5892 5890 5889 5888 5887 5886 5885 5885 5884 5883 5882 5881 5880 5881 5881 5880 5880 5880 5880 5881 5882 5883 5885 5886 5888 5890 5892 5893 5895 5896 5898 5899
5922 5922 5921 5920 5919 5917 5916 5914 5913 5911 5909 5907 5905 5903 5901 5898 5896 5894 5892 5890 5889 5888 5887 5886 5885 5884 5883 5881 5880 5880 5881 5881 5881 5881 5881 5881 5882 5883 5884 5886 5887 5888 5890 5892 5893 5895 5896 5898 5898
5923 5922 5922 5921 5920 5919 5917 5916 5914 5912 5911 5909 5907 5905 5902 5900 5897 5895 5893 5891 5890 5889 5887 5887 5886 5885 5883 5882 5881 5881 5881 5881 5882 5882 5882 5882 5883 5884 5885 5886 5888 5889 5890 5891 5893 5895 5896 5897 5898
5923 5923 5923 5922 5921 5920 5919 5918 5916 5914 5912 5910 5908 5906 5904 5901 5899 5897 5895 5893 5891 5890 5889 5888 5887 5885 5884 5883 5882 5882 5882 5882 5882 5882 5883 5883 5884 5884 5885 5887 5888 5889 5890 5891 5893 5894 5895 5896 5897
5923 5924 5924 5923 5922 5921 5921 5920 5917 5915 5913 5911 5909 5907 5905 5903 5901 5899 5897 5895 5893 5891 5890 5889 5888 5886 5885 5884 5884 5883 5883 5883 5883 5883 5884 5884 5884 5885 5886 5887 5888 5889 5890 5892 5893 5894 5895 5896 5897
5924 5925 5924 5924 5922 5921 5921 5920 5918 5916 5914 5912 5910 5908 5906 5904 5902 5900 5898 5896 5895 5893 5891 5890 5889 5888 5886 5885 5885 5884 5884 5884 5884 5884 5885 5885 5885 5885 5886 5887 5888 5889 5890 5891 5892 5894 5894 5895 5896
5923 5924 5923 5923 5922 5921 5920 5920 5918 5917 5915 5913 5911 5910 5908 5906 5904 5902 5900 5898 5896 5894 5893 5892 5890 5889 5887 5886 5886 5885 5885 5885 5885 5885 5886 5886 5885 5885 5886 5887 5888 5889 5890 5890 5892 5893 5894 5895 5895
5920 5921 5922 5922 5920 5920 5920 5919 5918 5917 5915 5914 5912 5910 5909 5907 5905 5903 5901 5899 5897 5896 5894 5892 5891 5890 5889 5888 5887 5886 5886 5886 5886 5886 5886 5886 5886 5886 5886 5887 5888 5888 5889 5890 5891 5892 5893 5893 5894
5918 5919 5920 5920 5919 5919 5919 5919 5918 5916 5915 5914 5912 5911 5909 5907 5906 5904 5902 5900 5899 5897 5895 5893 5892 5891 5890 5889 5888 5887 5887 5887 5887 5887 5887 5887 5887 5887 5887 5888 5888 5888 5889 5890 5890 5891 5892 5892 5892
5916 5917 5918 5918 5917 5918 5918 5918 5917 5916 5915 5914 5912 5911 5909 5907 5906 5904 5903 5901 5899 5897 5896 5894 5893 5892 5891 5890 5889 5888 5888 5888 5888 5888 5888 5888 5888 5888 5888 5888 5889 5889 5889 5889 5890 5890 5891 5891 5891
5914 5915 5915 5915 5916 5916 5917 5918 5917 5915 5914 5913 5912 5910 5909 5907 5905 5904 5903 5901 5899 5898 5896 5895 5894 5892 5892 5891 5890 5889 5889 5889 5889 5889 5888 5888 5888 5888 5888 5888 5889 5889 5889 5889 5889 5890 5890 5890 5890
5911 5912 5912 5913 5914 5915 5915 5916 5916 5914 5913 5912 5911 5909 5908 5907 5905 5904 5902 5901 5899 5898 5896 5895 5894 5893 5892 5891 5891 5890 5889 5889 5889 5889 5889 5888 5888 5888 5889 5888 5888 5888 5888 5888 5889 5889 5889 5889 5888
5908 5909 5910 5910 5912 5912 5912 5913 5913 5912 5911 5910 5909 5908 5907 5906 5904 5903 5901 5900 5899 5897 5896 5895 5894 5893 5892 5891 5891 5890 5890 5889 5889 5889 5889 5888 5888 5888 5888 5888 5888 5888 5887 5888 5888 5888 5887 5887 5887
5904 5907 5909 5910 5910 5910 5910 5909 5911 5909 5909 5908 5907 5906 5905 5904 5903 5902 5900 5899 5897 5896 5895 5894 5893 5892 5892 5891 5891 5890 5890 5889 5889 5889 5888 5888 5888 5888 5888 5888 5888 5887 5887 5887 5886 5886 5886 5886 5885
5901 5903 5906 5907 5908 5908 5906 5906 5908 5906 5906 5905 5904 5904 5903 5902 5901 5900 5899 5897 5896 5895 5894 5893 5893 5892 5891 5890 5890 5889 5889 5889 5888 5888 5888 5888 5888 5887 5887 5887 5887 5886 5886 5885 5885 5884 5884 5884 5883
5896 5898 5901 5902 5902 5903 5903 5903 5903 5903 5902 5902 5902 5901 5901 5900 5899 5898 5897 5895 5894 5893 5892 5891 5891 5890 5890 5889 5889 5888 5888 5888 5887 5887 5887 5886 5886 5886 5886 5885 5885 5884 5884 5883 5883 5882 5881 5881 5880
5892 5894 5896 5897 5898 5899 5900 5899 5900 5899 5899 5899 5898 5898 5897 5896 5896 5895 5894 5893 5891 5890 5889 5889 5888 5888 5888 5887 5887 5886 5886 5886 5886 5885 5885 5885 5884 5884 5884 5883 5883 5882 5881 5880 5880 5879 5878 5878 5877
5887 5888 5889 5891 5893 5894 5896 5898 5895 5895 5895 5895 5895 5894 5893 5893 5892 5891 5890 5889 5888 5887 5886 5886 5885 5885 5885 5885 5884 5884 5884 5883 5883 5883 5883 5882 5882 5881 5881 5880 5880 5879 5878 5877 5876 5875 5874 5874 5873
5880 5882 5884 5886 5887 5888 5890 5894 5890 5890 5890 5890 5890 5890 5889 5889 5888 5887 5886 5885 5884 5883 5882 5882 5881 5881 5881 5881 5881 5881 5881 5880 5880 5880 5880 5879 5879 5878 5878 5877 5876 5875 5875 5874 5873 5871 5870 5870 5869